Location: Beddau
(51.5575°N, 3.3561°W)
Time: 12:02:45
(UTC+00:00)

Cosmos 1805 Rocket - Pass Details

Date: 03 March 2021
Orbit: 606 x 630 km, 82.5° (Epoch: 16 April)

Event Time Altitude Azimuth Distance (km) Brightness Sun altitude
Rises 18:35:39 0° 200° (SSW) 2,876 7.3 -6.7°
Reaches altitude 10° 18:37:53 10° 205° (SSW) 1,980 6.5 -7.1°
Maximum altitude 18:42:12 57° 284° (WNW) 736 4.4 -7.7°
Drops below altitude 10° 18:46:36 10° 4° (N) 2,010 6.2 -8.4°
Sets 18:48:54 0° 8° (N) 2,926 6.9 -8.8°
